Regional Weather Roundup
Issued by NWS

Home | Current Version | Previous Version | Text Only | Print | Product List | Glossary Off
Versions: 1 2 3 4 5 6 7 8 9 10 11 12 13 14 15 16 17 18 19 20 21 22 23 24 25 26 27 28 29 30 31 32 33 34 35 36 37 38 39 40 41 42 43 44 45 46 47 48 49 50

000
ASUS43 KIND 252009
RWRIN

WEATHER ROUNDUP FOR INDIANA
NATIONAL WEATHER SERVICE INDIANAPOLIS IN
400 PM EDT WED APR 25 2018

NOTE: "FAIR" INDICATES FEW OR NO CLOUDS BELOW 12,000 FEET WITH NO
SIGNIFICANT WEATHER AND/OR OBSTRUCTIONS TO VISIBILITY.

* - STATION DOES NOT REPORT WEATHER SUCH AS PRECIPITATION OR FOG.

+ - STATION NOT QUALITY CONTROLLED BY THE NATIONAL WEATHER SERVICE.
    USE DATA WITH CAUTION...ESPECIALLY DEWPOINT AND RELATIVE
    HUMIDITY OBSERVATIONS.

INZ001>003-010>013-019-020-252100-
NORTHWEST INDIANA

CITY           SKY/WX    TMP DP  RH WIND       PRES   REMARKS
GARY /AIRPORT/ MOSUNNY   46  34  61 N12G23    30.10F
KNOX *+        FAIR      54  32  43 NW18G26   30.04F
LA PORTE +     FAIR      49  33  54 N22       30.05F
MICHIGAN CITY+ FAIR      45  34  65 N16       30.07F
MONTICELLO +   FAIR      58  30  34 N21G26    30.01S
RENSSELAER +   FAIR      55  18  22 N16G30    30.03F
VALPARAISO     FAIR      52  32  46 N15G24    30.05F

$$

LMZ046-743>745-252100-
SOUTHERN LAKE MICHIGAN

STATION/POSITION TIME  TEMP    WIND        PRES    WAVE
                       AIR SEA DIR/SP/G            HT
                 (UTC) (F)     (DEG/KT/KT) (MB)    (FT)
BURNS HARBOR     1940   39      10/ 13/ 17 1019.3F
MICHIGAN CITY    1940   40     340/ 17/ 18   N/A

$$

INZ004-005-014>016-021>024-252100-
NORTH CENTRAL INDIANA

CITY           SKY/WX    TMP DP  RH WIND       PRES   REMARKS
ELKHART        FAIR      55  32  41 W17G23    30.01S
GOSHEN         FAIR      57  36  45 NW18G26   29.99R
LOGANSPORT +   FAIR      59  32  36 NW17G26   30.01R
PERU/GRISSOM   FAIR      62  35  37 NW16G23   29.97R
ROCHESTER +    FAIR      59  32  36 NW14G21   30.01S
SOUTH BEND     FAIR      51  31  46 NW18G24   30.05S
WARSAW +       FAIR      59  32  36 NW18      29.99S

$$

INZ006>009-017-018-025>027-252100-
NORTHEAST INDIANA

CITY           SKY/WX    TMP DP  RH WIND       PRES   REMARKS
ANGOLA *+      FAIR      61  34  36 NW14      29.94S
AUBURN +       FAIR      63  34  34 W10G21    29.95S
FORT WAYNE     FAIR      65  38  36 W13       29.95F
HUNTINGTON +   FAIR      63  33  33 N10G16    29.95F
KENDALLVILLE + FAIR      62  27  25 NW14G21   29.94F

$$

INZ028-029-035-036-043>045-051>053-252100-
WEST CENTRAL INDIANA

CITY           SKY/WX    TMP DP  RH WIND       PRES   REMARKS
CRAWFORDSVL +  FAIR      62  40  45 NW10G20   29.99S
GREENCASTLE +  FAIR      63  41  45 N10       29.99F
LAFAYETTE      FAIR      61  38  42 N15       30.00S
TERRE HAUTE    FAIR      66  47  50 NW12      29.98F

$$

INZ030>032-037>040-046>048-054>057-064-065-252100-
CENTRAL INDIANA

CITY           SKY/WX    TMP DP  RH WIND       PRES   REMARKS
ANDERSON       PTSUNNY   63  48  59 NW12G17   29.96
COLUMBUS       MOSUNNY   63  48  59 NW15G21   29.98R
FISHERS *+     PTSUNNY   63  50  63 NW15      29.97F
FRANKFORT +    FAIR      66  40  37 N15G23    30.01R
GREENWOOD *+   FAIR      62  47  58 N7        29.98F
INDIANAPOLIS   PTSUNNY   64  47  53 N12       29.97F
-EAGLE CREEK   FAIR      65  45  48 NW9       29.96F
KOKOMO +       FAIR      63  38  39 NW20      29.98F
MARION +       FAIR      63  37  38 NW17G23   29.96F
MT COMFORT *+  FAIR      64  52  63 NW12G18   29.97F
SHELBYVILLE    FAIR      63  48  58 NW9       29.96F
ZIONSVILLE +   FAIR      62  45  52 N14       29.97F

$$

INZ033-034-041-042-049-050-058-059-252100-
EAST CENTRAL INDIANA

CITY           SKY/WX    TMP DP  RH WIND       PRES   REMARKS
MUNCIE         FAIR      64  42  44 NW14      29.94F
RICHMOND +     FAIR      59  46  63 NW12      29.94F

$$

INZ060-061-067>069-081>083-085>088-252100-
SOUTHWEST INDIANA

CITY           SKY/WX    TMP DP  RH WIND       PRES   REMARKS
EVANSVILLE     FAIR      69  53  56 N10       29.98F
HUNTINGBURG +  FAIR      67  52  58 NW10G16   29.97F
WASHINGTON +   FAIR      66  47  50 N7        29.97F

$$

INZ062-063-066-070>080-084-089>092-252100-
SOUTH CENTRAL AND SOUTHEAST INDIANA

CITY           SKY/WX    TMP DP  RH WIND       PRES   REMARKS
BATESVILLE +   PTSUNNY   64  50  59 MISG      29.94F
BEDFORD +      FAIR      66  46  48 NW8       29.96F
BLOOMINGTON    FAIR      63  51  65 N9        29.98S
FRENCH LICK *+ PTSUNNY   64  39  39 CALM      29.96F
MADISON *+     FAIR      64  46  52 N8        29.97F
NORTH VERNON + FAIR      63  48  59 NW10      29.96F
SEYMOUR +      PTSUNNY   66  48  52 N9        29.96F

$$





USA.gov is the U.S. government's official web portal to all federal, state and local government web resources and services.